| time (UTC) | temp F | wind direction | speed MPH | gust MPH | rain 1hr in | rain 24hr in | rain mn in | humidity % | barometer mb |
| 20260504021505 | 56 | 15 | 0.0 | 5.0 | 0.00 | 0.00 | 0.00 | 36 | 1011.8 |
| 20260504021503 | 56 | 15 | 0.0 | 5.0 | 0.00 | 0.00 | 0.00 | 36 | 1002.5 |
| 20260504021005 | 57 | 15 | 1.0 | 5.0 | 0.00 | 0.00 | 0.00 | 34 | 1011.7 |
| 20260504020006 | 58 | 330 | 3.0 | 6.0 | 0.00 | 0.00 | 0.00 | 32 | 1011.6 |
| 20260504020004 | 58 | 330 | 2.0 | 6.0 | 0.00 | 0.00 | 0.00 | 32 | 1002.4 |
| 20260504015505 | 58 | 328 | 3.0 | 6.0 | 0.00 | 0.00 | 0.00 | 31 | 1011.6 |
| 20260504014511 | 59 | 324 | 3.0 | 8.0 | 0.00 | 0.00 | 0.00 | 30 | 1002.5 |
| 20260504014006 | 59 | 319 | 3.0 | 9.0 | 0.00 | 0.00 | 0.00 | 30 | 1011.8 |
| 20260504013506 | 59 | 317 | 4.0 | 13.0 | 0.00 | 0.00 | 0.00 | 30 | 1011.7 |
| 20260504013007 | 60 | 350 | 3.0 | 13.0 | 0.00 | 0.00 | 0.00 | 29 | 1011.7 |
| 20260504013004 | 60 | 350 | 3.0 | 13.0 | 0.00 | 0.00 | 0.00 | 29 | 1002.5 |
| 20260504012005 | 60 | 26 | 1.0 | 5.0 | 0.00 | 0.00 | 0.00 | 29 | 1011.5 |
| 20260504011505 | 60 | 355 | 2.0 | 5.0 | 0.00 | 0.00 | 0.00 | 28 | 1011.5 |
| 20260504011502 | 60 | 355 | 2.0 | 5.0 | 0.00 | 0.00 | 0.00 | 28 | 1002.3 |
| 20260504010007 | 61 | 337 | 3.0 | 7.0 | 0.00 | 0.00 | 0.00 | 27 | 1011.3 |
| 20260504010005 | 61 | 337 | 2.0 | 7.0 | 0.00 | 0.00 | 0.00 | 27 | 1002.2 |
| 20260504005459 | 61 | 355 | 2.0 | 6.0 | 0.00 | 0.00 | 0.00 | 28 | 1011.2 |
| 20260504005005 | 62 | 349 | 3.0 | 11.0 | 0.00 | 0.00 | 0.00 | 26 | 1011.2 |
| 20260504004504 | 62 | 36 | 3.0 | 11.0 | 0.00 | 0.00 | 0.00 | 25 | 1011.1 |
| 20260504004005 | 63 | 355 | 7.0 | 15.0 | 0.00 | 0.00 | 0.00 | 24 | 1011.1 |
| 20260504003008 | 63 | 48 | 4.0 | 10.0 | 0.00 | 0.00 | 0.00 | 23 | 1002.1 |
| 20260504003006 | 63 | 48 | 4.0 | 10.0 | 0.00 | 0.00 | 0.00 | 23 | 1011.2 |
| 20260504002505 | 64 | 53 | 5.0 | 13.0 | 0.00 | 0.00 | 0.00 | 21 | 1011.2 |
| 20260504001505 | 65 | 14 | 3.0 | 6.0 | 0.00 | 0.00 | 0.00 | 21 | 1011.3 |
| 20260504001503 | 65 | 14 | 3.0 | 6.0 | 0.00 | 0.00 | 0.00 | 21 | 1002.2 |
| 20260504001005 | 65 | 16 | 2.0 | 4.0 | 0.00 | 0.00 | 0.00 | 20 | 1011.2 |
| 20260504000006 | 65 | 16 | 2.0 | 4.0 | 0.00 | 0.00 | 0.00 | 19 | 1011.2 |
| 20260504000004 | 65 | 16 | 2.0 | 4.0 | 0.00 | 0.00 | 0.00 | 19 | 1002.2 |
| 20260503235505 | 66 | 16 | 1.0 | 4.0 | 0.00 | 0.00 | 0.00 | 19 | 1011.2 |
| 20260503235006 | 66 | 17 | 1.0 | 5.0 | 0.00 | 0.00 | 0.00 | 18 | 1011.2 |
| 20260503234505 | 66 | 17 | 1.0 | 5.0 | 0.00 | 0.00 | 0.00 | 17 | 1002.2 |
| 20260503234006 | 66 | 311 | 3.0 | 5.0 | 0.00 | 0.00 | 0.00 | 17 | 1011.3 |
| 20260503233505 | 66 | 300 | 1.0 | 4.0 | 0.00 | 0.00 | 0.00 | 18 | 1011.2 |
| 20260503233007 | 67 | 304 | 1.0 | 3.0 | 0.00 | 0.00 | 0.00 | 18 | 1011.2 |
| 20260503233002 | 67 | 304 | 1.0 | 3.0 | 0.00 | 0.00 | 0.00 | 18 | 1002.1 |
| 20260503232505 | 67 | 316 | 0.0 | 7.0 | 0.00 | 0.00 | 0.00 | 18 | 1011.2 |
| 20260503231504 | 67 | 338 | 3.0 | 12.0 | 0.00 | 0.00 | 0.00 | 16 | 1011.2 |
| 20260503231005 | 68 | 338 | 4.0 | 12.0 | 0.00 | 0.00 | 0.00 | 17 | 1011.2 |
| 20260503230506 | 67 | 355 | 2.0 | 8.0 | 0.00 | 0.00 | 0.00 | 18 | 1011.2 |
| 20260503230007 | 67 | 61 | 4.0 | 8.0 | 0.00 | 0.00 | 0.00 | 17 | 1011.3 |
| 20260503230005 | 67 | 61 | 3.0 | 8.0 | 0.00 | 0.00 | 0.00 | 17 | 1002.2 |
| 20260503225505 | 67 | 5 | 2.0 | 11.0 | 0.00 | 0.00 | 0.00 | 17 | 1011.2 |
| 20260503225006 | 68 | 37 | 7.0 | 15.0 | 0.00 | 0.00 | 0.00 | 16 | 1011.2 |
| 20260503224507 | 69 | 19 | 2.0 | 13.0 | 0.00 | 0.00 | 0.00 | 17 | 1002.2 |
| 20260503224505 | 69 | 19 | 3.0 | 13.0 | 0.00 | 0.00 | 0.00 | 17 | 1011.3 |
| 20260503224007 | 69 | 17 | 4.0 | 10.0 | 0.00 | 0.00 | 0.00 | 15 | 1011.3 |
| 20260503223505 | 68 | 24 | 3.0 | 10.0 | 0.00 | 0.00 | 0.00 | 17 | 1011.4 |
| 20260503223005 | 68 | 5 | 3.0 | 6.0 | 0.00 | 0.00 | 0.00 | 17 | 1011.4 |
| 20260503223002 | 68 | 5 | 3.0 | 6.0 | 0.00 | 0.00 | 0.00 | 17 | 1002.3 |
| 20260503222506 | 68 | 38 | 3.0 | 5.0 | 0.00 | 0.00 | 0.00 | 16 | 1011.4 |
| 20260503222005 | 68 | 150 | 1.0 | 9.0 | 0.00 | 0.00 | 0.00 | 16 | 1011.4 |
| 20260503221505 | 68 | 301 | 5.0 | 9.0 | 0.00 | 0.00 | 0.00 | 15 | 1011.5 |
| 20260503221503 | 68 | 301 | 4.0 | 9.0 | 0.00 | 0.00 | 0.00 | 15 | 1002.5 |
| 20260503221005 | 68 | 317 | 5.0 | 9.0 | 0.00 | 0.00 | 0.00 | 17 | 1011.6 |
| 20260503220507 | 68 | 297 | 2.0 | 9.0 | 0.00 | 0.00 | 0.00 | 14 | 1011.6 |
| 20260503220005 | 68 | 223 | 5.0 | 9.0 | 0.00 | 0.00 | 0.00 | 16 | 1011.8 |
| 20260503220001 | 68 | 223 | 5.0 | 9.0 | 0.00 | 0.00 | 0.00 | 16 | 1002.8 |
| 20260503215505 | 68 | 277 | 5.0 | 9.0 | 0.00 | 0.00 | 0.00 | 15 | 1011.8 |
| 20260503215005 | 67 | 212 | 6.0 | 9.0 | 0.00 | 0.00 | 0.00 | 15 | 1011.9 |
| 20260503214504 | 67 | 117 | 1.0 | 10.0 | 0.00 | 0.00 | 0.00 | 15 | 1012.0 |
| 20260503214006 | 68 | 135 | 5.0 | 10.0 | 0.00 | 0.00 | 0.00 | 15 | 1012.1 |
| 20260503213505 | 68 | 220 | 3.0 | 9.0 | 0.00 | 0.00 | 0.00 | 15 | 1012.1 |
| 20260503213005 | 67 | 244 | 5.0 | 11.0 | 0.00 | 0.00 | 0.00 | 15 | 1012.4 |
| 20260503213003 | 67 | 244 | 4.0 | 11.0 | 0.00 | 0.00 | 0.00 | 15 | 1003.5 |
| 20260503212508 | 68 | 303 | 5.0 | 11.0 | 0.00 | 0.00 | 0.00 | 14 | 1012.4 |
| 20260503212005 | 68 | 306 | 3.0 | 9.0 | 0.00 | 0.00 | 0.00 | 15 | 1012.5 |
| 20260503211559 | 68 | 217 | 2.0 | 10.0 | 0.00 | 0.00 | 0.00 | 16 | 1003.7 |
| 20260503211506 | 68 | 300 | 2.0 | 10.0 | 0.00 | 0.00 | 0.00 | 15 | 1012.6 |
| 20260503211504 | 68 | 300 | 1.0 | 10.0 | 0.00 | 0.00 | 0.00 | 15 | 1003.7 |
| 20260503211006 | 68 | 5 | 4.0 | 10.0 | 0.00 | 0.00 | 0.00 | 18 | 1012.7 |
| 20260503210505 | 67 | 355 | 4.0 | 11.0 | 0.00 | 0.00 | 0.00 | 17 | 1012.8 |
| 20260503210005 | 67 | 326 | 5.0 | 11.0 | 0.00 | 0.00 | 0.00 | 14 | 1004.0 |
| 20260503205506 | 67 | 355 | 3.0 | 10.0 | 0.00 | 0.00 | 0.00 | 18 | 1013.0 |
| 20260503204505 | 66 | 300 | 5.0 | 12.0 | 0.00 | 0.00 | 0.00 | 16 | 1013.2 |
| 20260503204005 | 67 | 350 | 4.0 | 11.0 | 0.00 | 0.00 | 0.00 | 16 | 1013.3 |
| 20260503203505 | 67 | 21 | 4.0 | 11.0 | 0.00 | 0.00 | 0.00 | 13 | 1013.3 |
| 20260503203005 | 68 | 10 | 4.0 | 5.0 | 0.00 | 0.00 | 0.00 | 15 | 1013.4 |
| 20260503203002 | 68 | 10 | 3.0 | 5.0 | 0.00 | 0.00 | 0.00 | 15 | 1004.6 |
| 20260503202504 | 67 | 202 | 1.0 | 8.0 | 0.00 | 0.00 | 0.00 | 15 | 1013.5 |
| 20260503201506 | 67 | 28 | 4.0 | 13.0 | 0.00 | 0.00 | 0.00 | 16 | 1013.7 |
| 20260503201504 | 67 | 28 | 4.0 | 13.0 | 0.00 | 0.00 | 0.00 | 16 | 1004.9 |
| 20260503200505 | 66 | 326 | 6.0 | 10.0 | 0.00 | 0.00 | 0.00 | 15 | 1013.9 |
| 20260503200007 | 67 | 288 | 6.0 | 10.0 | 0.00 | 0.00 | 0.00 | 15 | 1014.0 |
| 20260503195505 | 67 | 267 | 7.0 | 11.0 | 0.00 | 0.00 | 0.00 | 15 | 1014.1 |
| 20260503195006 | 66 | 302 | 6.0 | 13.0 | 0.00 | 0.00 | 0.00 | 16 | 1014.2 |
| 20260503194504 | 66 | 302 | 6.0 | 15.0 | 0.00 | 0.00 | 0.00 | 17 | 1014.2 |
| 20260503194006 | 66 | 304 | 7.0 | 15.0 | 0.00 | 0.00 | 0.00 | 16 | 1014.3 |
| 20260503193505 | 65 | 302 | 6.0 | 18.0 | 0.00 | 0.00 | 0.00 | 16 | 1014.3 |
| 20260503193002 | 65 | 5 | 9.0 | 18.0 | 0.00 | 0.00 | 0.00 | 17 | 1005.7 |
| 20260503192005 | 65 | 345 | 7.0 | 13.0 | 0.00 | 0.00 | 0.00 | 18 | 1014.4 |
| 20260503191505 | 65 | 15 | 5.0 | 10.0 | 0.00 | 0.00 | 0.00 | 15 | 1014.5 |
| 20260503191503 | 65 | 15 | 4.0 | 10.0 | 0.00 | 0.00 | 0.00 | 15 | 1005.9 |
| 20260503191006 | 65 | 28 | 2.0 | 11.0 | 0.00 | 0.00 | 0.00 | 17 | 1014.6 |
| 20260503190500 | 66 | 338 | 7.0 | 15.0 | 0.00 | 0.00 | 0.00 | 17 | 1014.7 |
| 20260503190004 | 66 | 326 | 5.0 | 15.0 | 0.00 | 0.00 | 0.00 | 18 | 1006.2 |
| 20260503185506 | 66 | 330 | 5.0 | 13.0 | 0.00 | 0.00 | 0.00 | 16 | 1014.8 |
| 20260503185006 | 65 | 350 | 3.0 | 12.0 | 0.00 | 0.00 | 0.00 | 16 | 1014.8 |
| 20260503184505 | 64 | 272 | 6.0 | 15.0 | 0.00 | 0.00 | 0.00 | 18 | 1006.4 |
| 20260503184005 | 64 | 269 | 8.0 | 15.0 | 0.00 | 0.00 | 0.00 | 20 | 1015.0 |
| 20260503183504 | 64 | 303 | 7.0 | 14.0 | 0.00 | 0.00 | 0.00 | 18 | 1015.2 |
| 20260503183003 | 64 | 316 | 5.0 | 18.0 | 0.00 | 0.00 | 0.00 | 18 | 1006.7 |
| 20260503182506 | 64 | 290 | 9.0 | 18.0 | 0.00 | 0.00 | 0.00 | 18 | 1015.2 |
| 20260503182006 | 64 | 317 | 7.0 | 13.0 | 0.00 | 0.00 | 0.00 | 19 | 1015.3 |
| 20260503181505 | 64 | 301 | 6.0 | 16.0 | 0.00 | 0.00 | 0.00 | 18 | 1015.4 |
| 20260503181503 | 64 | 301 | 5.0 | 16.0 | 0.00 | 0.00 | 0.00 | 18 | 1007.0 |
| 20260503181006 | 64 | 288 | 11.0 | 19.0 | 0.00 | 0.00 | 0.00 | 19 | 1015.5 |
| 20260503180505 | 64 | 296 | 13.0 | 19.0 | 0.00 | 0.00 | 0.00 | 18 | 1015.4 |
| 20260503180007 | 64 | 300 | 8.0 | 16.0 | 0.00 | 0.00 | 0.00 | 19 | 1007.1 |
| 20260503175504 | 64 | 289 | 10.0 | 21.0 | 0.00 | 0.00 | 0.00 | 21 | 1015.7 |
| 20260503175005 | 64 | 323 | 7.0 | 17.0 | 0.00 | 0.00 | 0.00 | 20 | 1015.7 |
| 20260503174504 | 64 | 288 | 7.0 | 17.0 | 0.00 | 0.00 | 0.00 | 20 | 1015.7 |
| 20260503174006 | 64 | 300 | 9.0 | 17.0 | 0.00 | 0.00 | 0.00 | 20 | 1015.7 |
| 20260503173505 | 65 | 283 | 8.0 | 22.0 | 0.00 | 0.00 | 0.00 | 22 | 1015.9 |
| 20260503173009 | 63 | 267 | 7.0 | 22.0 | 0.00 | 0.00 | 0.00 | 23 | 1007.5 |
| 20260503173006 | 63 | 267 | 8.0 | 22.0 | 0.00 | 0.00 | 0.00 | 23 | 1015.9 |
| 20260503172505 | 63 | 285 | 8.0 | 21.0 | 0.00 | 0.00 | 0.00 | 20 | 1016.1 |
| 20260503172005 | 63 | 283 | 10.0 | 19.0 | 0.00 | 0.00 | 0.00 | 19 | 1016.1 |
| 20260503171507 | 63 | 288 | 13.0 | 19.0 | 0.00 | 0.00 | 0.00 | 19 | 1007.9 |
| 20260503171505 | 63 | 288 | 14.0 | 19.0 | 0.00 | 0.00 | 0.00 | 19 | 1016.3 |
| 20260503171005 | 64 | 281 | 6.0 | 18.0 | 0.00 | 0.00 | 0.00 | 20 | 1016.2 |
| 20260503170505 | 63 | 305 | 11.0 | 18.0 | 0.00 | 0.00 | 0.00 | 20 | 1016.3 |
| 20260503151003 | 59 | 186 | 3.0 | 10.0 | 0.00 | 0.00 | 0.00 | 27 | 1016.9 |
| 20260503150504 | 59 | 244 | 3.0 | 9.0 | 0.00 | 0.00 | 0.00 | 28 | 1016.9 |
| 20260503131006 | 49 | 274 | 2.0 | 6.0 | 0.00 | 0.00 | 0.00 | 43 | 1016.9 |
| 20260503130504 | 48 | 238 | 2.0 | 5.0 | 0.00 | 0.00 | 0.00 | 46 | 1016.9 |
| 20260503110504 | 43 | 207 | 3.0 | 7.0 | 0.00 | 0.00 | 0.00 | 48 | 1016.0 |
| 20260503090505 | 44 | 231 | 2.0 | 4.0 | 0.00 | 0.00 | 0.00 | 43 | 1016.3 |
| 20260503090110 | 44 | 224 | 2.0 | 4.0 | 0.00 | 0.00 | 0.00 | 44 | 1009.6 |
| 20260503081505 | 44 | 216 | 3.0 | 7.0 | 0.00 | 0.00 | 0.00 | 43 | 1016.3 |
| 20260503081502 | 44 | 216 | 3.0 | 7.0 | 0.00 | 0.00 | 0.00 | 43 | 1009.9 |
| 20260503081005 | 44 | 202 | 3.0 | 7.0 | 0.00 | 0.00 | 0.00 | 43 | 1016.3 |
| 20260503080504 | 45 | 238 | 2.0 | 7.0 | 0.00 | 0.00 | 0.00 | 42 | 1016.4 |
| 20260503072505 | 48 | 216 | 3.0 | 8.0 | 0.00 | 0.00 | 0.00 | 35 | 1016.7 |
| 20260503072005 | 48 | 207 | 3.0 | 8.0 | 0.00 | 0.00 | 0.00 | 34 | 1016.7 |
| 20260503071506 | 48 | 232 | 3.0 | 9.0 | 0.00 | 0.00 | 0.00 | 33 | 1016.7 |
| 20260503071503 | 48 | 232 | 2.0 | 9.0 | 0.00 | 0.00 | 0.00 | 33 | 1010.5 |
| 20260503071005 | 49 | 212 | 3.0 | 9.0 | 0.00 | 0.00 | 0.00 | 33 | 1016.7 |
| 20260503070506 | 49 | 214 | 3.0 | 11.0 | 0.00 | 0.00 | 0.00 | 32 | 1016.7 |
| 20260503055006 | 51 | 233 | 7.0 | 17.0 | 0.00 | 0.00 | 0.00 | 29 | 1017.0 |
| 20260503054503 | 51 | 190 | 7.0 | 17.0 | 0.00 | 0.00 | 0.00 | 29 | 1011.2 |
| 20260503054007 | 51 | 185 | 6.0 | 14.0 | 0.00 | 0.00 | 0.00 | 29 | 1017.1 |
| 20260503053505 | 51 | 166 | 6.0 | 11.0 | 0.00 | 0.00 | 0.00 | 29 | 1017.1 |
| 20260503053006 | 51 | 182 | 6.0 | 11.0 | 0.00 | 0.00 | 0.00 | 29 | 1011.3 |
| 20260503052505 | 51 | 215 | 6.0 | 14.0 | 0.00 | 0.00 | 0.00 | 28 | 1017.1 |
| 20260503052006 | 51 | 168 | 8.0 | 16.0 | 0.00 | 0.00 | 0.00 | 28 | 1017.0 |
| 20260503051505 | 51 | 188 | 7.0 | 14.0 | 0.00 | 0.00 | 0.00 | 29 | 1017.0 |
| 20260503051006 | 51 | 194 | 6.0 | 16.0 | 0.00 | 0.00 | 0.00 | 29 | 1017.1 |
| 20260503050505 | 51 | 176 | 7.0 | 16.0 | 0.00 | 0.00 | 0.00 | 29 | 1017.1 |
| 20260503050006 | 50 | 232 | 8.0 | 13.0 | 0.00 | 0.00 | 0.00 | 29 | 1017.1 |
| 20260503050003 | 50 | 232 | 7.0 | 13.0 | 0.00 | 0.00 | 0.00 | 29 | 1011.5 |
| 20260503045505 | 50 | 169 | 7.0 | 12.0 | 0.00 | 0.00 | 0.00 | 30 | 1017.2 |
| 20260503044504 | 49 | 172 | 5.0 | 9.0 | 0.00 | 0.00 | 0.00 | 31 | 1011.8 |
| 20260503043505 | 48 | 197 | 4.0 | 9.0 | 0.00 | 0.00 | 0.00 | 34 | 1017.4 |
| 20260503043003 | 47 | 196 | 4.0 | 9.0 | 0.00 | 0.00 | 0.00 | 34 | 1011.9 |
| 20260503041505 | 47 | 202 | 2.0 | 6.0 | 0.00 | 0.00 | 0.00 | 35 | 1017.5 |
| 20260503041503 | 47 | 202 | 2.0 | 6.0 | 0.00 | 0.00 | 0.00 | 35 | 1012.0 |
| 20260503041006 | 47 | 193 | 2.0 | 5.0 | 0.00 | 0.00 | 0.00 | 37 | 1017.4 |
| 20260503040505 | 47 | 231 | 1.0 | 3.0 | 0.00 | 0.00 | 0.00 | 37 | 1017.5 |
| 20260503040006 | 47 | 217 | 1.0 | 4.0 | 0.00 | 0.00 | 0.00 | 38 | 1017.5 |
| 20260503040004 | 47 | 217 | 0.0 | 4.0 | 0.00 | 0.00 | 0.00 | 38 | 1012.1 |
| 20260503035005 | 50 | 188 | 2.0 | 5.0 | 0.00 | 0.00 | 0.00 | 32 | 1017.5 |
| 20260503034505 | 50 | 183 | 2.0 | 5.0 | 0.00 | 0.00 | 0.00 | 32 | 1017.4 |
| 20260503034503 | 50 | 183 | 2.0 | 5.0 | 0.00 | 0.00 | 0.00 | 32 | 1011.9 |
| 20260503034006 | 50 | 192 | 3.0 | 7.0 | 0.00 | 0.00 | 0.00 | 31 | 1017.4 |
| 20260503033005 | 51 | 165 | 4.0 | 8.0 | 0.00 | 0.00 | 0.00 | 31 | 1017.4 |
| 20260503033003 | 51 | 165 | 3.0 | 8.0 | 0.00 | 0.00 | 0.00 | 31 | 1012.0 |
| 20260503032505 | 51 | 158 | 6.0 | 9.0 | 0.00 | 0.00 | 0.00 | 30 | 1017.4 |
| 20260503032005 | 51 | 187 | 5.0 | 8.0 | 0.00 | 0.00 | 0.00 | 31 | 1017.3 |
| 20260503031504 | 51 | 150 | 5.0 | 9.0 | 0.00 | 0.00 | 0.00 | 31 | 1011.9 |
| 20260503030505 | 52 | 188 | 6.0 | 10.0 | 0.00 | 0.00 | 0.00 | 31 | 1017.2 |
| 20260503030005 | 52 | 152 | 6.0 | 10.0 | 0.00 | 0.00 | 0.00 | 31 | 1011.9 |
| 20260503025505 | 52 | 160 | 6.0 | 10.0 | 0.00 | 0.00 | 0.00 | 31 | 1017.1 |
| 20260503025006 | 52 | 158 | 7.0 | 10.0 | 0.00 | 0.00 | 0.00 | 31 | 1017.1 |
| 20260503024505 | 52 | 155 | 6.0 | 10.0 | 0.00 | 0.00 | 0.00 | 32 | 1017.1 |
| 20260503024503 | 52 | 155 | 5.0 | 10.0 | 0.00 | 0.00 | 0.00 | 32 | 1011.8 |
| 20260503024007 | 52 | 165 | 6.0 | 10.0 | 0.00 | 0.00 | 0.00 | 32 | 1017.1 |
| 20260503023504 | 52 | 168 | 5.0 | 8.0 | 0.00 | 0.00 | 0.00 | 33 | 1017.0 |
| 20260503023005 | 52 | 159 | 5.0 | 8.0 | 0.00 | 0.00 | 0.00 | 32 | 1017.0 |
| 20260503023003 | 52 | 159 | 5.0 | 8.0 | 0.00 | 0.00 | 0.00 | 32 | 1011.8 |
| 20260503022505 | 53 | 152 | 5.0 | 9.0 | 0.00 | 0.00 | 0.00 | 33 | 1016.9 |
| 20260503022006 | 53 | 144 | 5.0 | 9.0 | 0.00 | 0.00 | 0.00 | 33 | 1016.9 |